STARLINK-1412 (45707 NORAD) Tracking and Keplerian Element Data

This shows tracking and keplerian element data for the satellite.

Feedback or suggestion? Click here.




ElementValue
Catalog45707
NameSTARLINK-1412
Epoch Orbit182
Epoch Day191.91670139
Epoch Year2020
RAAN353.5675
Inclination52.9997
Eccentricity0.0001251
Argument of Perigee67.6768
Mean Anonmoly116.325
Mean Motion15.62722687
Decay Rate0.00057178
L11 45707U 20035BC 20191.91670139 .00057178 00000-0 62662-3 0 9995
L22 45707 52.9997 353.5675 0001251 67.6768 116.3250 15.62722687 1824

Live tracking and technical data element details for STARLINK-1412 (NORAD 45707). STARLINK-1412 can be tracked NOW for your location showing map with azimuth and elevation plus other details from your city location.

Track the satellite on the map from your city or location and see movement details for azimuth, elevation, latitude, longitude, range, height, and movement on the map or in text.







IsCatalogInMostPopularTable: catalog: 45707, numindb: 6
Update: records affected: 1



GetName: 45707 STARLINK-1412

Hit Count: updated at: Fri, 10 Jul 2020 15:53:18 GMT